Location: *
(41.7492°S, 135.4150°W)
Time: 09:27:30
(UTC+00:00)

First-Move - Visible Passes

Search period start: 29 June 2022 00:00
Search period end: 09 July 2022 00:00
Orbit: 572 x 660 km, 97.6° (Epoch: 28 June)

Date Brightness Start Highest point End Pass type
(mag) Time Alt. Az. Time Alt. Az. Time Alt. Az.
02 Jul ? 02:13:49 10° SSW 02:16:46 19° WSW 02:19:40 10° WNW visible
03 Jul ? 02:30:36 10° SW 02:32:31 13° WSW 02:34:25 10° W visible
08 Jul ? 02:13:24 10° SSW 02:16:17 18° WSW 02:19:08 10° WNW visible
